Location: Marion Hill
(40.7303°N, 80.2959°W)
Time: 23:45:04
(UTC+00:00)

Timation 2 Rocket - Pass Details

Date: 29 October 2020
Orbit: 904 x 1077 km, 70.0° (Epoch: 29 November)

Event Time Altitude Azimuth Distance (km) Brightness Sun altitude
Rises 22:46:50 0° 335° (NNW) 3,759 7.2 -5.6°
Reaches altitude 10° 22:49:24 10° 337° (NNW) 2,828 6.6 -6.1°
Maximum altitude 22:56:05 81° 65° (ENE) 1,072 4.2 -7.4°
Drops below altitude 10° 23:02:56 10° 153° (SSE) 2,897 6.3 -8.6°
Sets 23:05:34 0° 154° (SSE) 3,855 7.0 -9.1°
